| time (UTC) | temp F | wind direction | speed MPH | gust MPH | rain 1hr in | rain 24hr in | rain mn in | humidity % | barometer mb |
| 20260502130506 | 40 | 306 | 0.0 | 2.0 | 0.01 | 0.03 | 0.03 | 93 | 1006.2 |
| 20260502123505 | 39 | 328 | 0.0 | 2.0 | 0.01 | 0.02 | 0.02 | 92 | 1006.3 |
| 20260502123005 | 39 | 360 | 0.0 | 3.0 | 0.01 | 0.02 | 0.02 | 92 | 1006.4 |
| 20260502122504 | 39 | 298 | 1.0 | 3.0 | 0.01 | 0.02 | 0.02 | 92 | 1006.4 |
| 20260502122004 | 39 | 320 | 0.0 | 2.0 | 0.01 | 0.02 | 0.02 | 92 | 1006.3 |
| 20260502121503 | 39 | 324 | 1.0 | 3.0 | 0.01 | 0.02 | 0.02 | 93 | 1006.3 |
| 20260502121004 | 39 | 325 | 0.0 | 4.0 | 0.01 | 0.02 | 0.02 | 93 | 1006.3 |
| 20260502120504 | 39 | 338 | 1.0 | 4.0 | 0.01 | 0.02 | 0.02 | 92 | 1006.3 |
| 20260502115503 | 39 | 319 | 0.0 | 3.0 | 0.00 | 0.01 | 0.01 | 93 | 1006.4 |
| 20260502115003 | 39 | 321 | 1.0 | 3.0 | 0.00 | 0.01 | 0.01 | 92 | 1006.2 |
| 20260502114502 | 38 | 338 | 1.0 | 4.0 | 0.00 | 0.01 | 0.01 | 92 | 1006.3 |
| 20260502114002 | 38 | 331 | 1.0 | 4.0 | 0.00 | 0.01 | 0.01 | 92 | 1006.2 |
| 20260502113502 | 38 | 333 | 2.0 | 4.0 | 0.00 | 0.01 | 0.01 | 92 | 1006.2 |
| 20260502113002 | 38 | 321 | 1.0 | 3.0 | 0.00 | 0.01 | 0.01 | 92 | 1006.1 |
| 20260502112500 | 38 | 340 | 1.0 | 3.0 | 0.01 | 0.01 | 0.01 | 92 | 1006.1 |
| 20260502112100 | 38 | 355 | 1.0 | 3.0 | 0.01 | 0.01 | 0.01 | 91 | 1006.0 |
| 20260502111603 | 38 | 355 | 1.0 | 2.0 | 0.01 | 0.01 | 0.01 | 91 | 1006.0 |
| 20260502111100 | 38 | 325 | 1.0 | 3.0 | 0.01 | 0.01 | 0.01 | 92 | 1006.0 |
| 20260502110602 | 38 | 317 | 1.0 | 3.0 | 0.01 | 0.01 | 0.01 | 91 | 1005.9 |
| 20260502110104 | 38 | 317 | 1.0 | 3.0 | 0.01 | 0.01 | 0.01 | 91 | 1005.9 |
| 20260502105558 | 38 | 355 | 0.0 | 2.0 | 0.01 | 0.01 | 0.01 | 91 | 1005.9 |
| 20260502105059 | 38 | 355 | 0.0 | 2.0 | 0.01 | 0.01 | 0.01 | 92 | 1005.9 |
| 20260502104556 | 38 | 337 | 0.0 | 2.0 | 0.01 | 0.01 | 0.01 | 91 | 1005.9 |
| 20260502104055 | 38 | 337 | 0.0 | 3.0 | 0.01 | 0.01 | 0.01 | 92 | 1005.9 |
| 20260502103555 | 38 | 271 | 1.0 | 4.0 | 0.01 | 0.01 | 0.01 | 92 | 1005.9 |
| 20260502103054 | 38 | 323 | 1.0 | 4.0 | 0.01 | 0.01 | 0.01 | 92 | 1005.8 |
| 20260502102553 | 38 | 323 | 1.0 | 2.0 | 0.01 | 0.01 | 0.01 | 92 | 1005.7 |
| 20260502102054 | 38 | 323 | 1.0 | 2.0 | 0.00 | 0.00 | 0.00 | 92 | 1005.8 |
| 20260502101553 | 38 | 323 | 0.0 | 2.0 | 0.00 | 0.00 | 0.00 | 92 | 1005.8 |
| 20260502101055 | 38 | 338 | 0.0 | 1.0 | 0.00 | 0.00 | 0.00 | 92 | 1005.7 |
| 20260502100551 | 38 | 338 | 0.0 | 1.0 | 0.00 | 0.00 | 0.00 | 92 | 1005.9 |
| 20260502091044 | 39 | 107 | 0.0 | 0.0 | 0.00 | 0.00 | 0.00 | 90 | 1005.9 |
| 20260502090543 | 39 | 107 | 0.0 | 0.0 | 0.00 | 0.00 | 0.00 | 90 | 1005.9 |
| 20260502071531 | 42 | 146 | 0.0 | 2.0 | 0.00 | 0.00 | 0.00 | 76 | 1006.0 |
| 20260502071029 | 42 | 146 | 0.0 | 2.0 | 0.00 | 0.00 | 0.00 | 74 | 1005.9 |
| 20260502070530 | 42 | 146 | 0.0 | 2.0 | 0.00 | 0.00 | 0.00 | 75 | 1005.8 |
| 20260502070042 | 42 | 146 | 1.0 | 2.0 | 0.00 | 0.00 | 0.00 | 75 | 1005.9 |
| 20260502065528 | 42 | 162 | 0.0 | 2.0 | 0.00 | 0.00 | 0.00 | 73 | 1005.8 |
| 20260502065027 | 42 | 162 | 0.0 | 2.0 | 0.00 | 0.00 | 0.00 | 73 | 1005.8 |
| 20260502064537 | 42 | 183 | 0.0 | 2.0 | 0.00 | 0.00 | 0.00 | 67 | 1005.8 |
| 20260502064029 | 42 | 183 | 1.0 | 2.0 | 0.00 | 0.00 | 0.00 | 68 | 1005.8 |
| 20260502063524 | 42 | 300 | 0.0 | 1.0 | 0.00 | 0.00 | 0.00 | 66 | 1005.7 |
| 20260502063028 | 41 | 300 | 0.0 | 1.0 | 0.00 | 0.00 | 0.00 | 67 | 1005.8 |
| 20260502062522 | 41 | 300 | 0.0 | 3.0 | 0.00 | 0.00 | 0.00 | 68 | 1005.8 |
| 20260502062022 | 41 | 300 | 1.0 | 3.0 | 0.00 | 0.00 | 0.00 | 73 | 1005.9 |
| 20260502061522 | 41 | 130 | 0.0 | 2.0 | 0.00 | 0.00 | 0.00 | 73 | 1005.8 |
| 20260502061023 | 41 | 128 | 0.0 | 2.0 | 0.00 | 0.00 | 0.00 | 72 | 1005.8 |
| 20260502060520 | 41 | 128 | 1.0 | 3.0 | 0.00 | 0.00 | 0.00 | 72 | 1005.9 |
| 20260502060020 | 41 | 128 | 1.0 | 3.0 | 0.00 | 0.00 | 0.00 | 73 | 1005.8 |
| 20260502055519 | 41 | 5 | 1.0 | 2.0 | 0.00 | 0.00 | 0.00 | 68 | 1005.8 |
| 20260502055019 | 41 | 5 | 0.0 | 1.0 | 0.00 | 0.00 | 0.00 | 68 | 1005.9 |
| 20260502054519 | 41 | 5 | 0.0 | 2.0 | 0.00 | 0.00 | 0.00 | 67 | 1005.9 |
| 20260502054018 | 41 | 5 | 0.0 | 2.0 | 0.00 | 0.00 | 0.00 | 67 | 1005.9 |
| 20260502053518 | 41 | 5 | 0.0 | 0.0 | 0.00 | 0.00 | 0.00 | 66 | 1005.8 |
| 20260502053019 | 41 | 5 | 0.0 | 1.0 | 0.00 | 0.00 | 0.00 | 66 | 1005.8 |
| 20260502052517 | 41 | 5 | 0.0 | 1.0 | 0.00 | 0.00 | 0.00 | 67 | 1005.8 |
| 20260502052018 | 41 | 5 | 0.0 | 0.0 | 0.00 | 0.00 | 0.00 | 69 | 1005.8 |
| 20260502051519 | 41 | 5 | 0.0 | 1.0 | 0.00 | 0.00 | 0.00 | 66 | 1005.8 |
| 20260502051018 | 41 | 5 | 0.0 | 1.0 | 0.00 | 0.00 | 0.00 | 70 | 1005.8 |
| 20260502050517 | 41 | 5 | 0.0 | 1.0 | 0.00 | 0.00 | 0.00 | 67 | 1005.8 |
| 20260502050016 | 41 | 5 | 0.0 | 1.0 | 0.00 | 0.00 | 0.00 | 69 | 1005.8 |
| 20260502045518 | 41 | 5 | 0.0 | 0.0 | 0.00 | 0.00 | 0.00 | 67 | 1005.8 |
| 20260502045017 | 41 | 5 | 0.0 | 0.0 | 0.00 | 0.00 | 0.00 | 68 | 1005.8 |
| 20260502044514 | 41 | 5 | 0.0 | 0.0 | 0.00 | 0.00 | 0.00 | 69 | 1005.8 |
| 20260502044014 | 41 | 5 | 0.0 | 0.0 | 0.00 | 0.00 | 0.00 | 70 | 1005.8 |
| 20260502043515 | 41 | 5 | 0.0 | 0.0 | 0.00 | 0.00 | 0.00 | 68 | 1005.7 |
| 20260502043012 | 41 | 5 | 0.0 | 0.0 | 0.00 | 0.00 | 0.00 | 67 | 1005.7 |
| 20260502042511 | 41 | 5 | 0.0 | 0.0 | 0.00 | 0.00 | 0.00 | 67 | 1005.8 |
| 20260502042010 | 41 | 5 | 0.0 | 0.0 | 0.00 | 0.00 | 0.00 | 67 | 1005.8 |
| 20260502041510 | 41 | 5 | 0.0 | 0.0 | 0.00 | 0.00 | 0.00 | 66 | 1005.8 |
| 20260502041008 | 41 | 5 | 0.0 | 0.0 | 0.00 | 0.00 | 0.00 | 67 | 1005.8 |
| 20260502040507 | 40 | 5 | 0.0 | 0.0 | 0.00 | 0.01 | 0.00 | 67 | 1005.8 |
| 20260502040007 | 40 | 5 | 0.0 | 0.0 | 0.00 | 0.01 | 0.00 | 67 | 1005.8 |
| 20260502035510 | 40 | 5 | 0.0 | 0.0 | 0.00 | 0.01 | 0.00 | 69 | 1005.8 |
| 20260502035007 | 40 | 5 | 0.0 | 0.0 | 0.00 | 0.01 | 0.00 | 70 | 1005.8 |
| 20260502034507 | 40 | 5 | 0.0 | 0.0 | 0.00 | 0.01 | 0.00 | 70 | 1005.9 |
| 20260502034010 | 40 | 5 | 0.0 | 0.0 | 0.00 | 0.01 | 0.00 | 68 | 1005.9 |
| 20260502033506 | 40 | 5 | 0.0 | 0.0 | 0.00 | 0.01 | 0.00 | 67 | 1005.9 |
| 20260502033012 | 40 | 5 | 0.0 | 0.0 | 0.00 | 0.01 | 0.00 | 67 | 1005.9 |
| 20260502032507 | 40 | 5 | 0.0 | 0.0 | 0.00 | 0.01 | 0.00 | 66 | 1005.9 |
| 20260502032007 | 40 | 5 | 0.0 | 0.0 | 0.00 | 0.01 | 0.00 | 68 | 1005.9 |
| 20260502031506 | 40 | 5 | 0.0 | 1.0 | 0.00 | 0.01 | 0.00 | 68 | 1005.9 |
| 20260502031005 | 40 | 5 | 0.0 | 2.0 | 0.00 | 0.01 | 0.00 | 69 | 1005.8 |
| 20260502030505 | 40 | 5 | 1.0 | 2.0 | 0.00 | 0.01 | 0.00 | 68 | 1005.9 |
| 20260502030006 | 40 | 5 | 0.0 | 1.0 | 0.00 | 0.01 | 0.00 | 68 | 1006.0 |
| 20260502025505 | 40 | 5 | 0.0 | 2.0 | 0.00 | 0.01 | 0.00 | 68 | 1006.0 |
| 20260502025005 | 41 | 5 | 0.0 | 2.0 | 0.00 | 0.01 | 0.00 | 67 | 1005.9 |
| 20260502024511 | 41 | 5 | 0.0 | 1.0 | 0.00 | 0.01 | 0.00 | 66 | 1005.9 |
| 20260502024005 | 41 | 5 | 0.0 | 1.0 | 0.00 | 0.01 | 0.00 | 65 | 1005.9 |
| 20260502023505 | 41 | 5 | 0.0 | 1.0 | 0.00 | 0.01 | 0.00 | 64 | 1005.8 |
| 20260502023005 | 41 | 5 | 0.0 | 2.0 | 0.00 | 0.01 | 0.00 | 65 | 1005.9 |
| 20260502022505 | 42 | 5 | 0.0 | 2.0 | 0.00 | 0.01 | 0.00 | 66 | 1005.9 |
| 20260502022007 | 42 | 5 | 0.0 | 2.0 | 0.00 | 0.01 | 0.00 | 65 | 1005.9 |
| 20260502021504 | 43 | 5 | 0.0 | 1.0 | 0.00 | 0.01 | 0.00 | 65 | 1006.0 |
| 20260502021004 | 43 | 5 | 0.0 | 0.0 | 0.00 | 0.01 | 0.00 | 63 | 1006.0 |
| 20260502020506 | 43 | 5 | 0.0 | 0.0 | 0.00 | 0.01 | 0.00 | 61 | 1006.0 |
| 20260502020004 | 43 | 5 | 0.0 | 0.0 | 0.00 | 0.01 | 0.00 | 59 | 1006.0 |
| 20260502015506 | 44 | 5 | 0.0 | 0.0 | 0.00 | 0.01 | 0.00 | 59 | 1006.0 |
| 20260502015004 | 44 | 5 | 0.0 | 0.0 | 0.00 | 0.01 | 0.00 | 59 | 1006.1 |
| 20260502014512 | 44 | 5 | 0.0 | 0.0 | 0.00 | 0.01 | 0.00 | 58 | 1006.1 |
| 20260502014002 | 44 | 5 | 0.0 | 0.0 | 0.00 | 0.01 | 0.00 | 59 | 1006.1 |
| 20260502013502 | 45 | 5 | 0.0 | 0.0 | 0.00 | 0.01 | 0.00 | 57 | 1006.1 |
| 20260502013002 | 45 | 5 | 0.0 | 0.0 | 0.00 | 0.01 | 0.00 | 57 | 1006.1 |
| 20260502012502 | 45 | 5 | 0.0 | 1.0 | 0.00 | 0.01 | 0.00 | 56 | 1006.0 |
| 20260502012002 | 45 | 5 | 0.0 | 1.0 | 0.00 | 0.01 | 0.00 | 55 | 1006.0 |
| 20260502011502 | 45 | 5 | 0.0 | 0.0 | 0.00 | 0.01 | 0.00 | 55 | 1005.9 |
| 20260502011001 | 45 | 5 | 0.0 | 0.0 | 0.00 | 0.01 | 0.00 | 55 | 1005.8 |
| 20260502010501 | 45 | 5 | 0.0 | 0.0 | 0.00 | 0.01 | 0.00 | 54 | 1005.8 |
| 20260502010002 | 46 | 5 | 0.0 | 0.0 | 0.00 | 0.01 | 0.00 | 56 | 1005.8 |
| 20260502005100 | 46 | 5 | 0.0 | 0.0 | 0.00 | 0.01 | 0.00 | 54 | 1005.8 |
| 20260502004606 | 46 | 5 | 0.0 | 0.0 | 0.00 | 0.01 | 0.00 | 54 | 1005.8 |
| 20260502004059 | 46 | 5 | 0.0 | 0.0 | 0.00 | 0.01 | 0.00 | 54 | 1005.9 |
| 20260502003603 | 46 | 5 | 0.0 | 0.0 | 0.00 | 0.01 | 0.00 | 54 | 1005.8 |
| 20260502003059 | 46 | 5 | 0.0 | 0.0 | 0.00 | 0.01 | 0.00 | 53 | 1005.8 |
| 20260502002559 | 47 | 5 | 0.0 | 1.0 | 0.00 | 0.01 | 0.00 | 53 | 1005.7 |
| 20260502002059 | 47 | 5 | 0.0 | 1.0 | 0.00 | 0.01 | 0.00 | 52 | 1005.7 |
| 20260502001600 | 47 | 5 | 0.0 | 1.0 | 0.00 | 0.01 | 0.00 | 52 | 1005.7 |
| 20260502001101 | 47 | 5 | 0.0 | 1.0 | 0.00 | 0.01 | 0.00 | 53 | 1005.6 |
| 20260502000558 | 48 | 5 | 0.0 | 1.0 | 0.00 | 0.01 | 0.00 | 51 | 1005.5 |
| 20260502000111 | 48 | 5 | 0.0 | 1.0 | 0.00 | 0.01 | 0.00 | 52 | 1005.4 |
| 20260501235558 | 48 | 5 | 0.0 | 1.0 | 0.00 | 0.01 | 0.00 | 51 | 1005.4 |
| 20260501235057 | 48 | 5 | 0.0 | 1.0 | 0.00 | 0.01 | 0.00 | 51 | 1005.4 |
| 20260501234601 | 48 | 355 | 0.0 | 1.0 | 0.00 | 0.01 | 0.00 | 51 | 1005.3 |
| 20260501234059 | 48 | 355 | 0.0 | 1.0 | 0.00 | 0.01 | 0.00 | 51 | 1005.2 |
| 20260501233558 | 49 | 355 | 0.0 | 1.0 | 0.00 | 0.01 | 0.00 | 52 | 1005.2 |
| 20260501233101 | 49 | 355 | 0.0 | 2.0 | 0.00 | 0.01 | 0.00 | 51 | 1005.1 |
| 20260501232556 | 49 | 355 | 0.0 | 4.0 | 0.00 | 0.01 | 0.00 | 52 | 1005.1 |
| 20260501232056 | 49 | 360 | 0.0 | 4.0 | 0.00 | 0.01 | 0.00 | 51 | 1005.1 |
| 20260501231557 | 49 | 323 | 0.0 | 4.0 | 0.00 | 0.01 | 0.00 | 49 | 1005.0 |
| 20260501231056 | 50 | 333 | 2.0 | 4.0 | 0.00 | 0.01 | 0.00 | 47 | 1005.0 |
| 20260501230556 | 50 | 15 | 0.0 | 4.0 | 0.00 | 0.01 | 0.00 | 47 | 1004.9 |
| 20260501230056 | 51 | 5 | 0.0 | 4.0 | 0.00 | 0.03 | 0.00 | 49 | 1005.0 |
| 20260501225556 | 51 | 5 | 0.0 | 3.0 | 0.00 | 0.03 | 0.00 | 46 | 1004.9 |
| 20260501225057 | 52 | 27 | 1.0 | 3.0 | 0.00 | 0.03 | 0.00 | 43 | 1004.9 |
| 20260501224558 | 52 | 90 | 1.0 | 5.0 | 0.00 | 0.03 | 0.00 | 46 | 1004.9 |
| 20260501224055 | 53 | 10 | 1.0 | 5.0 | 0.00 | 0.03 | 0.00 | 41 | 1004.9 |
| 20260501223555 | 54 | 346 | 1.0 | 3.0 | 0.00 | 0.03 | 0.00 | 45 | 1004.9 |
| 20260501223100 | 53 | 84 | 1.0 | 6.0 | 0.00 | 0.03 | 0.00 | 47 | 1004.8 |
| 20260501222557 | 52 | 126 | 2.0 | 6.0 | 0.00 | 0.03 | 0.00 | 43 | 1004.7 |
| 20260501222054 | 52 | 327 | 1.0 | 8.0 | 0.00 | 0.03 | 0.00 | 44 | 1004.7 |
| 20260501221601 | 51 | 294 | 1.0 | 6.0 | 0.00 | 0.03 | 0.00 | 46 | 1004.8 |
| 20260501221053 | 51 | 331 | 1.0 | 7.0 | 0.00 | 0.03 | 0.00 | 44 | 1004.8 |
| 20260501220552 | 51 | 265 | 1.0 | 9.0 | 0.00 | 0.03 | 0.00 | 45 | 1004.8 |
| 20260501220058 | 52 | 321 | 3.0 | 9.0 | 0.00 | 0.03 | 0.00 | 43 | 1004.8 |
| 20260501215553 | 53 | 311 | 2.0 | 8.0 | 0.00 | 0.03 | 0.00 | 44 | 1004.8 |
| 20260501215053 | 55 | 360 | 1.0 | 4.0 | 0.00 | 0.03 | 0.00 | 40 | 1004.8 |
| 20260501214552 | 54 | 5 | 1.0 | 5.0 | 0.00 | 0.03 | 0.00 | 41 | 1004.9 |
| 20260501214051 | 54 | 325 | 1.0 | 7.0 | 0.00 | 0.03 | 0.00 | 41 | 1004.8 |
| 20260501213554 | 54 | 339 | 3.0 | 7.0 | 0.00 | 0.03 | 0.00 | 41 | 1004.8 |
| 20260501213054 | 54 | 299 | 1.0 | 5.0 | 0.00 | 0.03 | 0.00 | 42 | 1004.7 |
| 20260501212551 | 53 | 322 | 2.0 | 5.0 | 0.00 | 0.03 | 0.00 | 41 | 1004.7 |
| 20260501212052 | 53 | 279 | 1.0 | 11.0 | 0.00 | 0.03 | 0.00 | 44 | 1004.7 |
| 20260501211551 | 52 | 329 | 3.0 | 11.0 | 0.00 | 0.03 | 0.00 | 44 | 1004.7 |
| 20260501211051 | 52 | 270 | 3.0 | 6.0 | 0.00 | 0.03 | 0.00 | 47 | 1004.7 |
| 20260501210549 | 52 | 14 | 1.0 | 8.0 | 0.00 | 0.03 | 0.00 | 45 | 1004.7 |
| 20260501210049 | 51 | 304 | 1.0 | 8.0 | 0.00 | 0.03 | 0.00 | 46 | 1004.8 |
| 20260501205552 | 51 | 340 | 4.0 | 8.0 | 0.00 | 0.03 | 0.00 | 44 | 1004.8 |
| 20260501205049 | 52 | 77 | 2.0 | 9.0 | 0.00 | 0.03 | 0.00 | 45 | 1004.8 |
| 20260501204549 | 52 | 342 | 4.0 | 9.0 | 0.00 | 0.03 | 0.00 | 45 | 1004.9 |
| 20260501204048 | 51 | 280 | 3.0 | 8.0 | 0.00 | 0.03 | 0.00 | 45 | 1004.9 |
| 20260501203548 | 51 | 285 | 3.0 | 13.0 | 0.00 | 0.03 | 0.00 | 44 | 1004.8 |
| 20260501203048 | 51 | 300 | 7.0 | 13.0 | 0.00 | 0.03 | 0.00 | 44 | 1004.8 |
| 20260501202552 | 52 | 30 | 3.0 | 9.0 | 0.00 | 0.03 | 0.00 | 44 | 1004.8 |
| 20260501202049 | 53 | 333 | 4.0 | 10.0 | 0.00 | 0.03 | 0.00 | 42 | 1004.8 |
| 20260501201035 | 55 | 279 | 3.0 | 9.0 | 0.00 | 0.03 | 0.00 | 43 | 1004.7 |
| 20260501200536 | 54 | 51 | 3.0 | 9.0 | 0.00 | 0.07 | 0.00 | 40 | 1004.7 |
| 20260501200034 | 53 | 300 | 3.0 | 8.0 | 0.00 | 0.07 | 0.00 | 41 | 1004.8 |
| 20260501195533 | 53 | 326 | 4.0 | 9.0 | 0.00 | 0.07 | 0.00 | 46 | 1004.8 |
| 20260501195032 | 52 | 289 | 3.0 | 12.0 | 0.00 | 0.07 | 0.00 | 42 | 1004.8 |
| 20260501194537 | 52 | 15 | 5.0 | 12.0 | 0.00 | 0.07 | 0.00 | 42 | 1004.9 |
| 20260501194031 | 52 | 293 | 2.0 | 12.0 | 0.00 | 0.07 | 0.00 | 43 | 1004.8 |
| 20260501193530 | 52 | 350 | 3.0 | 12.0 | 0.00 | 0.07 | 0.00 | 42 | 1004.7 |
| 20260501193032 | 52 | 11 | 1.0 | 11.0 | 0.00 | 0.07 | 0.00 | 44 | 1004.9 |
| 20260501192530 | 52 | 277 | 6.0 | 12.0 | 0.00 | 0.07 | 0.00 | 42 | 1004.8 |
| 20260501192029 | 52 | 300 | 4.0 | 12.0 | 0.00 | 0.07 | 0.00 | 45 | 1004.9 |
| 20260501191530 | 51 | 313 | 4.0 | 10.0 | 0.00 | 0.07 | 0.00 | 43 | 1004.9 |
| 20260501191028 | 51 | 289 | 4.0 | 8.0 | 0.00 | 0.07 | 0.00 | 45 | 1004.9 |
| 20260501190528 | 51 | 305 | 3.0 | 6.0 | 0.00 | 0.08 | 0.00 | 44 | 1005.0 |
| 20260501190028 | 51 | 256 | 2.0 | 9.0 | 0.00 | 0.08 | 0.00 | 45 | 1005.1 |
| 20260501185527 | 51 | 316 | 4.0 | 9.0 | 0.00 | 0.08 | 0.00 | 46 | 1005.1 |
| 20260501185027 | 51 | 360 | 3.0 | 6.0 | 0.00 | 0.08 | 0.00 | 44 | 1005.1 |
| 20260501184527 | 51 | 298 | 3.0 | 7.0 | 0.00 | 0.08 | 0.00 | 46 | 1005.1 |
| 20260501184027 | 51 | 333 | 2.0 | 8.0 | 0.00 | 0.08 | 0.00 | 49 | 1005.2 |
| 20260501183529 | 51 | 259 | 2.0 | 8.0 | 0.00 | 0.08 | 0.00 | 46 | 1005.1 |
| 20260501183037 | 51 | 323 | 3.0 | 10.0 | 0.00 | 0.08 | 0.00 | 45 | 1005.1 |
| 20260501182525 | 51 | 246 | 6.0 | 10.0 | 0.00 | 0.08 | 0.00 | 45 | 1005.2 |
| 20260501182028 | 51 | 314 | 4.0 | 10.0 | 0.00 | 0.08 | 0.00 | 49 | 1005.1 |
| 20260501181534 | 51 | 288 | 1.0 | 14.0 | 0.00 | 0.08 | 0.00 | 45 | 1005.1 |
| 20260501181025 | 51 | 285 | 8.0 | 14.0 | 0.00 | 0.08 | 0.00 | 46 | 1005.1 |
| 20260501180524 | 52 | 227 | 6.0 | 11.0 | 0.00 | 0.10 | 0.00 | 46 | 1005.2 |
| 20260501180031 | 52 | 330 | 4.0 | 15.0 | 0.00 | 0.10 | 0.00 | 43 | 1005.2 |
| 20260501175523 | 51 | 306 | 6.0 | 15.0 | 0.00 | 0.10 | 0.00 | 47 | 1005.2 |
| 20260501175023 | 51 | 12 | 5.0 | 12.0 | 0.00 | 0.10 | 0.00 | 45 | 1005.1 |
| 20260501174529 | 51 | 81 | 2.0 | 11.0 | 0.00 | 0.10 | 0.00 | 45 | 1005.2 |
| 20260501174022 | 51 | 326 | 4.0 | 11.0 | 0.00 | 0.10 | 0.00 | 47 | 1005.3 |
| 20260501173521 | 50 | 306 | 3.0 | 10.0 | 0.00 | 0.10 | 0.00 | 47 | 1005.2 |
| 20260501173020 | 51 | 281 | 4.0 | 11.0 | 0.00 | 0.10 | 0.00 | 46 | 1005.1 |
| 20260501172520 | 50 | 311 | 6.0 | 11.0 | 0.00 | 0.10 | 0.00 | 50 | 1005.2 |
| 20260501172026 | 50 | 267 | 4.0 | 10.0 | 0.00 | 0.10 | 0.00 | 49 | 1005.3 |
| 20260501171520 | 50 | 284 | 5.0 | 10.0 | 0.00 | 0.10 | 0.00 | 51 | 1005.4 |
| 20260501171017 | 49 | 302 | 3.0 | 10.0 | 0.00 | 0.10 | 0.00 | 49 | 1005.2 |
| 20260501170516 | 49 | 284 | 6.0 | 10.0 | 0.00 | 0.10 | 0.00 | 56 | 1005.3 |
| 20260501170015 | 49 | 48 | 3.0 | 14.0 | 0.00 | 0.10 | 0.00 | 49 | 1005.4 |
| 20260501165515 | 48 | 271 | 5.0 | 14.0 | 0.00 | 0.10 | 0.00 | 49 | 1005.4 |
| 20260501165015 | 48 | 315 | 5.0 | 12.0 | 0.00 | 0.10 | 0.00 | 48 | 1005.5 |
| 20260501164515 | 48 | 288 | 3.0 | 12.0 | 0.00 | 0.10 | 0.00 | 52 | 1005.5 |
| 20260501164017 | 48 | 5 | 3.0 | 12.0 | 0.00 | 0.10 | 0.00 | 55 | 1005.5 |
| 20260501163512 | 47 | 258 | 5.0 | 12.0 | 0.00 | 0.10 | 0.00 | 51 | 1005.6 |
| 20260501163012 | 47 | 269 | 5.0 | 13.0 | 0.00 | 0.10 | 0.00 | 53 | 1005.7 |
| 20260501162514 | 47 | 317 | 4.0 | 13.0 | 0.00 | 0.10 | 0.00 | 52 | 1005.6 |
| 20260501162012 | 46 | 313 | 4.0 | 11.0 | 0.00 | 0.10 | 0.00 | 55 | 1005.7 |
| 20260501161512 | 46 | 182 | 3.0 | 11.0 | 0.00 | 0.10 | 0.00 | 54 | 1005.7 |
| 20260501161011 | 47 | 273 | 4.0 | 12.0 | 0.00 | 0.10 | 0.00 | 52 | 1005.8 |
| 20260501160509 | 47 | 338 | 5.0 | 12.0 | 0.00 | 0.10 | 0.00 | 56 | 1005.9 |
| 20260501160012 | 46 | 360 | 2.0 | 8.0 | 0.00 | 0.10 | 0.00 | 53 | 1005.9 |
| 20260501155512 | 46 | 331 | 2.0 | 10.0 | 0.00 | 0.10 | 0.00 | 55 | 1005.9 |
| 20260501155011 | 46 | 360 | 4.0 | 10.0 | 0.00 | 0.10 | 0.00 | 56 | 1005.9 |
| 20260501154510 | 46 | 278 | 3.0 | 9.0 | 0.00 | 0.10 | 0.00 | 55 | 1005.9 |
| 20260501154006 | 46 | 351 | 3.0 | 12.0 | 0.00 | 0.10 | 0.00 | 58 | 1006.0 |
| 20260501153506 | 46 | 340 | 6.0 | 12.0 | 0.00 | 0.10 | 0.00 | 58 | 1006.1 |
| 20260501153006 | 45 | 311 | 5.0 | 11.0 | 0.00 | 0.10 | 0.00 | 63 | 1006.1 |
| 20260501152504 | 45 | 267 | 4.0 | 10.0 | 0.00 | 0.10 | 0.00 | 62 | 1006.1 |
| 20260501152004 | 45 | 310 | 5.0 | 13.0 | 0.00 | 0.10 | 0.00 | 61 | 1006.2 |
| 20260501151503 | 45 | 341 | 4.0 | 13.0 | 0.00 | 0.10 | 0.00 | 59 | 1006.2 |
| 20260501151002 | 45 | 299 | 4.0 | 12.0 | 0.00 | 0.10 | 0.00 | 65 | 1006.1 |
| 20260501150502 | 44 | 312 | 5.0 | 11.0 | 0.00 | 0.10 | 0.00 | 62 | 1006.1 |
| 20260501150003 | 45 | 327 | 3.0 | 10.0 | 0.00 | 0.10 | 0.00 | 62 | 1006.0 |
| 20260501145502 | 45 | 280 | 3.0 | 10.0 | 0.00 | 0.10 | 0.00 | 62 | 1006.1 |
| 20260501145100 | 44 | 315 | 5.0 | 9.0 | 0.00 | 0.10 | 0.00 | 59 | 1006.2 |
| 20260501144600 | 44 | 26 | 2.0 | 12.0 | 0.00 | 0.10 | 0.00 | 65 | 1006.1 |
| 20260501144059 | 43 | 306 | 5.0 | 11.0 | 0.00 | 0.10 | 0.00 | 64 | 1006.2 |
| 20260501143558 | 43 | 288 | 5.0 | 11.0 | 0.00 | 0.10 | 0.00 | 65 | 1006.1 |
| 20260501143102 | 42 | 275 | 4.0 | 14.0 | 0.00 | 0.10 | 0.00 | 63 | 1006.1 |
| 20260501142601 | 42 | 360 | 7.0 | 14.0 | 0.00 | 0.10 | 0.00 | 63 | 1006.2 |
| 20260501142101 | 42 | 275 | 2.0 | 13.0 | 0.00 | 0.10 | 0.00 | 67 | 1006.3 |
| 20260501141600 | 42 | 291 | 3.0 | 13.0 | 0.00 | 0.10 | 0.00 | 63 | 1006.3 |